Regional Weather Roundup
Issued by NWS

Home | Current Version | Previous Version | Text Only | Print | Product List | Glossary Off
Versions: 1 2 3 4 5 6 7 8 9 10 11 12 13 14 15 16 17 18 19 20 21 22 23 24 25 26 27 28 29 30 31 32 33 34 35 36 37 38 39 40 41 42 43 44 45 46 47 48 49 50

000
ASUS43 KLOT 231609
RWRIL

ILLINOIS REGIONAL WEATHER ROUNDUP
NATIONAL WEATHER SERVICE CHICAGO/ROMEOVILLE IL
1100 AM CDT SUN JUL 23 2017

NOTE: "FAIR" INDICATES FEW OR NO CLOUDS BELOW 12,000 FEET WITH NO
SIGNIFICANT WEATHER AND/OR OBSTRUCTIONS TO VISIBILITY.

* THESE STATIONS ARE NOT UNDER NWS QUALITY CONTROL. THEY ALSO MAY NOT
  REPORT WEATHER SUCH AS PRECIPITATION OR FOG.

ILZ001-002-007-009-015-016-024-231700-
NORTHWEST ILLINOIS

CITY           SKY/WX    TMP DP  RH WIND       PRES   REMARKS
MOLINE         SUNNY     85  73  67 W7        29.85R HX  91
STERLING*      SUNNY     82  74  76 W9        29.85R HX  88
SAVANNA*       SUNNY     82  72  71 SW6       29.84S HX  87
$$

ILZ003-004-008-010-011-017-018-231700-
NORTH CENTRAL ILLINOIS

CITY           SKY/WX    TMP DP  RH WIND       PRES   REMARKS
ROCKFORD       MOSUNNY   85  69  58 W6        29.84S HX  89
FREEPORT*      SUNNY     80  70  72 W7        29.86S HX  83
ROCHELLE*      SUNNY     81  72  75 W6        29.85R HX  85
DE KALB*       SUNNY     82  72  72 CALM      29.84S HX  86
PERU*          SUNNY    N/A N/A N/A W7        29.85S
$$

ILZ005-006-012>014-019>023-231700-
NORTHEAST ILLINOIS

CITY           SKY/WX    TMP DP  RH WIND       PRES   REMARKS
CHICAGO-OHARE  MOSUNNY   86  65  49 VRB7      29.80S HX  88
CHICAGO-MIDWAY MOSUNNY   86  69  56 N9        29.79S HX  90
AURORA         SUNNY     83  74  74 W8        29.83R HX  89
LANSING*       PTSUNNY   83  70  64 W6        29.81S HX  87
JOLIET*        MOSUNNY   85  75  72 W7        29.82S HX  92
WAUKEGAN       SUNNY     84  71  65 VRB3      29.80R HX  89
DUPAGE AIRPORT SUNNY     84  71  65 NW8       29.82R HX  89
WHEELING       MOSUNNY   83  71  67 W10       29.82R HX  87
MORRIS*        PTSUNNY   82  75  78 W10       29.81S HX  89
ROMEOVILLE*    MOSUNNY   82  72  69 NW7       29.82R HX  87
NORTHERLY ISL    N/A     80  71  74 E3          N/A  HX  84
$$

LMZ740>746-231700-
SOUTHERN LAKE MICHIGAN

STATION/POSITION SKY/WX   TEMP    WIND        PRES    VSBY  WAVE
                          AIR SEA DIR/SP/G                  HT/PER
                          (F)     (DEG/KT/KT) (MB)    (MI)  (FT/S)
SOUTHERN BUOY              71 70  180/ 10/ 10 1008.4          0
WILMETTE HARBOR            76 75   30/  4/  4   N/A           0
HARRISON CRIB              81     140/  5/  5   N/A
BURNHAM HARBOR             80                   N/A
CALUMET HARBOR             81      80/  4/  7 1008.7F
BURNS HARBOR               76        CALM     1009.8S
MICHIGAN CITY              77     270/  3/  4   N/A
MICHIGAN CITY 6N           77 76  240/  2/  2   N/A           0
ST. JOSEPH                 75 76  250/  6/  8 1008.7          0
$$

ILZ025>027-034>036-040-047-049-050-058-095>099-231700-
WEST-CENTRAL ILLINOIS

CITY           SKY/WX    TMP DP  RH WIND       PRES   REMARKS
QUINCY         SUNNY     86  72  62 W7        29.89R HX  92
GALESBURG*     MOSUNNY   84  75  74 W10       29.89R HX  91
MACOMB*        MOSUNNY   84  75  73 NW10G16   29.90R HX  92
JACKSONVILLE*  SUNNY     85  73  67 NW9       29.89R HX  91
PITTSFIELD*    CLOUDY    86  73  64 NW7       29.91R HX  93
$$

ILZ028>032-037-038-041>044-048-051>054-059>061-231700-
CENTRAL ILLINOIS

CITY           SKY/WX    TMP DP  RH WIND       PRES   REMARKS
PONTIAC        MOSUNNY   82  78  88 W12       29.85S HX  92
BLOOMINGTON    PTSUNNY   83  74  74 W15       29.87S HX  89
DECATUR        CLOUDY    84  74  71 NW13      29.87R HX  91
PEORIA         PTSUNNY   85  75  72 NW9       29.86S HX  93
LACON*         SUNNY     83  73  71 NW7       29.85R HX  90
LINCOLN*       MOSUNNY   85  76  75 NW9       29.87R HX  95
SPRINGFIELD    PTSUNNY   86  76  71 NW15      29.88R HX  96
TAYLORVILLE    CLOUDY    81  73  76 W6        29.89R HX  86
$$

ILZ033-039-045-046-055>057-062-063-231700-
EAST-CENTRAL ILLINOIS

CITY           SKY/WX    TMP DP  RH WIND       PRES   REMARKS
CHAMPAIGN      CLOUDY    83  75  77 W12G20    29.85R HX  90
RANTOUL*       CLOUDY    83  75  77 NW10G20   29.84R HX  91
MATTOON        CLOUDY    80  73  79 SW10      29.87R HX  84
PARIS*         PTSUNNY   81  76  86 NW10G16   29.85R HX  87
$$

ILZ079-100>102-231700-
SOUTHWEST ILLINOIS

CITY           SKY/WX    TMP DP  RH WIND       PRES   REMARKS
ALTON          CLOUDY    77  68  73 SW8       29.93R
BELLEVILLE     CLOUDY    79  67  66 SW7       29.94R HX  81
CAHOKIA*       CLOUDY    79  66  64 SW6       29.93R HX  81
SPARTA*        CLOUDY    79  67  67 W6        29.95R HX  81
$$

ILZ064>066-069>071-074>076-080>082-084>086-088>090-092>094-231700-
SOUTH-CENTRAL ILLINOIS

CITY           SKY/WX    TMP DP  RH WIND       PRES   REMARKS
CARBONDALE     PTSUNNY   82  69  64 S7        29.91S HX  85
CAIRO*         SUNNY     84  69  61 SE6       29.90F HX  88
EFFINGHAM*     PTSUNNY   78  71  79 S10       29.92R HX  80
MARION         PTSUNNY   82  70  65 S7        29.92R HX  86
MT. VERNON     CLOUDY    79  71  76 VRB5      29.92R HX  82
CENTRALIA*     CLOUDY    80  72  74 SW6       29.92R HX  84
SALEM*         CLOUDY    79  69  70 SW6       29.92S HX  81
METROPOLIS*    SUNNY     84  71  64 SE6       29.91F HX  89
$$

ILZ067-068-072-073-078-083-087-091-231700-
SOUTHEAST ILLINOIS

CITY           SKY/WX    TMP DP  RH WIND       PRES   REMARKS
LAWRENCEVILLE  CLOUDY    75  32  20 SW12      29.89R
FLORA*         CLOUDY    79  73  82 S12       29.95R HX  82
FAIRFIELD*     CLOUDY    78  72  81 S5        29.90S HX  81
HARRISBURG*    PTSUNNY   82  72  69 S5        29.92R HX  87
ROBINSON*      CLOUDY    76  72  86 SW10      29.88S
CARMI*         CLOUDY    77  74  91 S7        29.89F
$$

ABBREVIATIONS USED IN REMARKS
   TC - TEMPERATURE IN CELSIUS
  WCI - WIND CHILL INDEX
   HX - HEAT INDEX
  VSB - VISIBILITY
$$




USA.gov is the U.S. government's official web portal to all federal, state and local government web resources and services.